TimeEST,TemperatureF,Dew PointF,Humidity,Sea Level PressureIn,VisibilityMPH,Wind Direction,Wind SpeedMPH,Gust SpeedMPH,PrecipitationIn,Events,Conditions,WindDirDegrees,DateUTC
12:03 AM,33.8,30.2,87,30.04,1.0,WSW,10.4,-,0.00,Snow,Light Snow,240,2013-11-08 05:03:00
12:22 AM,33.8,32.0,93,30.03,4.0,WSW,9.2,18.4,0.00,Snow,Light Snow,250,2013-11-08 05:22:00
12:53 AM,33.1,32.0,96,30.06,3.0,WSW,6.9,-,0.01,Snow,Light Snow,240,2013-11-08 05:53:00
12:57 AM,33.8,32.0,93,30.03,1.8,WSW,10.4,17.3,0.00,Snow,Light Snow,250,2013-11-08 05:57:00
1:18 AM,33.8,30.2,87,30.02,3.0,West,13.8,-,0.00,Snow,Light Snow,260,2013-11-08 06:18:00
1:45 AM,33.8,32.0,93,30.02,1.8,West,11.5,-,0.00,Snow,Light Snow,260,2013-11-08 06:45:00
1:53 AM,33.1,32.0,96,30.06,1.5,West,9.2,-,0.00,Snow,Light Snow,270,2013-11-08 06:53:00
2:05 AM,33.8,32.0,93,30.03,0.5,West,11.5,-,0.00,Fog-Snow,Snow,260,2013-11-08 07:05:00
2:46 AM,33.8,30.2,87,30.04,2.0,West,8.1,-,0.00,Snow,Light Snow,280,2013-11-08 07:46:00
2:53 AM,33.1,30.9,92,30.07,9.0,West,6.9,-,0.00,,Overcast,280,2013-11-08 07:53:00
3:31 AM,33.8,32.0,93,30.04,1.8,WSW,5.8,-,N/A,,Overcast,250,2013-11-08 08:31:00
3:40 AM,33.8,32.0,93,30.04,0.8,SW,5.8,-,N/A,,Mist,230,2013-11-08 08:40:00
3:48 AM,33.8,32.0,93,30.05,2.0,WSW,4.6,-,0.00,Snow,Light Snow,240,2013-11-08 08:48:00
3:53 AM,33.1,32.0,96,30.08,5.0,WSW,6.9,-,0.00,Snow,Light Snow,240,2013-11-08 08:53:00
4:53 AM,33.1,32.0,96,30.10,7.0,WSW,5.8,-,0.00,,Overcast,250,2013-11-08 09:53:00
5:11 AM,33.8,30.2,87,30.07,7.0,WSW,8.1,-,N/A,,Overcast,250,2013-11-08 10:11:00
5:26 AM,33.8,30.2,87,30.08,5.0,WSW,8.1,-,0.00,Snow,Light Snow,250,2013-11-08 10:26:00
5:36 AM,33.8,30.2,87,30.08,6.0,WSW,5.8,-,0.00,,Overcast,250,2013-11-08 10:36:00
5:53 AM,33.1,30.9,92,30.12,8.0,WSW,5.8,-,0.00,,Overcast,250,2013-11-08 10:53:00
6:53 AM,33.1,30.0,89,30.14,10.0,West,6.9,-,N/A,,Overcast,260,2013-11-08 11:53:00
7:53 AM,33.1,30.0,89,30.17,10.0,WSW,6.9,-,N/A,,Mostly Cloudy,250,2013-11-08 12:53:00
8:53 AM,34.0,30.0,85,30.19,9.0,WSW,8.1,-,0.00,Snow,Light Snow,250,2013-11-08 13:53:00
9:11 AM,33.8,30.2,87,30.17,9.0,WSW,8.1,-,0.00,,Overcast,250,2013-11-08 14:11:00
9:53 AM,34.0,30.9,89,30.22,10.0,WSW,8.1,-,0.00,,Overcast,250,2013-11-08 14:53:00
10:38 AM,35.6,30.2,81,30.20,2.5,West,5.8,-,0.03,Snow,Light Snow,270,2013-11-08 15:38:00
10:41 AM,35.6,30.2,81,30.20,6.0,West,8.1,-,0.03,Snow,Light Snow,270,2013-11-08 15:41:00
10:53 AM,35.1,30.9,85,30.25,10.0,West,6.9,-,0.04,,Overcast,270,2013-11-08 15:53:00
11:07 AM,35.6,32.0,87,30.21,10.0,WSW,5.8,-,0.02,,Mostly Cloudy,240,2013-11-08 16:07:00
11:53 AM,37.0,30.0,76,30.25,10.0,West,9.2,17.3,0.10,,Overcast,270,2013-11-08 16:53:00
12:53 PM,37.0,28.9,73,30.25,10.0,West,9.2,-,0.06,,Overcast,280,2013-11-08 17:53:00
1:53 PM,37.9,28.9,70,30.25,10.0,West,5.8,-,N/A,,Overcast,270,2013-11-08 18:53:00
2:53 PM,37.0,28.0,70,30.25,10.0,West,6.9,-,N/A,,Overcast,280,2013-11-08 19:53:00
3:53 PM,37.0,27.0,67,30.26,10.0,West,4.6,-,N/A,,Overcast,280,2013-11-08 20:53:00
4:53 PM,37.0,25.0,62,30.26,10.0,WSW,6.9,-,N/A,,Mostly Cloudy,240,2013-11-08 21:53:00
5:53 PM,36.0,26.1,67,30.28,10.0,West,9.2,-,N/A,,Overcast,260,2013-11-08 22:53:00
6:53 PM,36.0,25.0,64,30.28,10.0,SSW,3.5,-,N/A,,Overcast,210,2013-11-08 23:53:00
7:53 PM,36.0,27.0,70,30.28,10.0,SSW,3.5,-,N/A,,Overcast,210,2013-11-09 00:53:00
8:53 PM,35.1,26.1,70,30.29,10.0,SSW,4.6,-,N/A,,Overcast,210,2013-11-09 01:53:00
9:53 PM,33.1,24.1,70,30.29,10.0,SSW,4.6,-,N/A,,Clear,200,2013-11-09 02:53:00
10:53 PM,32.0,24.1,73,30.28,10.0,SSW,4.6,-,N/A,,Clear,210,2013-11-09 03:53:00
11:53 PM,32.0,24.1,73,30.27,10.0,SSW,4.6,-,N/A,,Clear,200,2013-11-09 04:53:00